DECAYED

STARLINK-1660, 46574 (Decayed)

Orbit data source: Space-Track

STARLINK-1660, 46574 was a payload satellite owned by SpaceX/Seattle (US) in LEO that was launched on Tue, 06 Oct 2020 UTC via an FALCON 9 launch vehicle from the Air Force Eastern Test Range (AFETR). Payload-class satellites include a variety of spacecraft equipped with specific instruments for various scientific and technological missions. These include communications satellites like Starlink; space stations such as the ISS; scientific satellites like the Hubble; Earth observation satellites from companies like Planet Labs, Umbra, and HawkEye 360; GPS; miniature CubeSats for education and research; and military/defense satellites.

Not visible in the next 10 days
Identifier
46574, 2020-070AU
Orbit
Decayed
Country
Flag of USUS
Related business
Manufacturer
SpaceX/Seattle
Mission
Decayed Commercial Communications
Bus & Motor
STARLINK, Unknown motor
Mass
260 kg wet, ~248 kg dry
Launch date (UTC)
2020-10-06 (6 years ago)
Launch vehicle
FALCON 9
Launch site
Air Force Eastern Test Range (AFETR)
Object type
Payload
Rocket body
Debris
Shape & HBR
Box + 1 Pan, 10.1 m
Radar Cross Section
13.562 m², Large (>1 m²)

Expand to show TLE details & history
Last TLE update: 10 months ago

TLE from 10 months ago
0 STARLINK-1660
1 46574U 20070AU  25259.08443734  .12629556  12449-4  39745-3 0  9992
2 46574  53.0118 149.3182 0005861 244.5145 115.5297 16.44613833274461
Epoch: 2025-09-16T02:01Z
TLE epoch observation values (Epoch: 2025-09-16T02:01:35.386Z)
Latitude
-0.00001°
Longitude
123.64094°
Altitude
156.137 km
Speed
7.813 km/s
True Right ascension
09h 57m 16s
True Declination
0° 00' 00"
Sunlit
Object was in daylight at epoch
Visualization orbit readout
Latitude
Unknown
Longitude
Unknown
Altitude
Unknown
Speed
Unknown
Apparent Right ascension
Unknown
Apparent Declination
Unknown
Sunlit
N/A
Visualization observer readout
Local Sidereal Time
00:06:13
Azimuth
Unknown
Elevation
Unknown
Doppler factor
Unknown
Orbital elements
Apogee altitude
157.68 km
Perigee altitude
150.023 km
Semi-major axis
6,531.989 km
Eccentricity
0.00059
Inclination
53.0118°
RAAN
149.3182°
Arg. of periapsis
244.5145°
True anomaly
115.59029°
Mean anomaly
115.5297°
Eccentric anomaly
115.55999°
Mean motion
4.11126 °/min
Orbital period
87.56 mins
BSTAR
0.00039745
Loading maneuver chart data...
Computing Atmospheric mass density...

Documentation

Showing up to 5 results
|